Location: Richmond
(37.5540°N, 77.4610°W)
Time: 19:05:57
(UTC-04:00)

ISS - Visible Passes

Search period start: 05 May 2021 00:00
Search period end: 15 May 2021 00:00
Orbit: 418 x 421 km, 51.6° (Epoch: 05 May)

Date Brightness Start Highest point End Pass type
(mag) Time Alt. Az. Time Alt. Az. Time Alt. Az.
05 May -0.9 03:45:59 12° NNW 03:46:29 12° NNW 03:47:52 10° N visible
06 May -0.6 03:00:05 13° N 03:00:05 13° N 03:00:57 10° NNE visible
09 May -0.8 05:27:38 10° NNW 05:29:44 15° NNE 05:31:50 10° ENE visible
10 May -0.5 04:40:44 10° N 04:42:03 12° NNE 04:43:22 10° NE visible
11 May -1.6 05:28:57 10° NNW 05:32:00 30° NNE 05:35:02 10° E visible
12 May -1.0 04:41:45 10° NNW 04:44:25 21° NNE 04:47:03 10° E visible
13 May -0.6 03:54:41 10° NNW 03:56:46 15° NNE 03:58:51 10° ENE visible
13 May -3.7 05:30:36 10° NW 05:33:59 89° NE 05:37:21 10° SE visible
13 May -1.7 22:12:20 10° SW 22:13:24 19° SW 22:13:24 19° SW visible
14 May -0.3 03:07:45 10° N 03:09:04 12° NNE 03:10:24 10° NE visible
14 May -2.8 04:43:13 10° NW 04:46:32 50° NE 04:49:48 10° ESE visible
14 May -3.6 21:25:03 10° SSW 21:28:17 47° SE 21:31:33 10° ENE visible
14 May -1.1 23:02:37 10° W 23:05:16 21° NNW 23:07:55 10° NNE visible
